BREEZE-M R/B, 40259

Orbit data source: Space-Track

BREEZE-M R/B, 40259 is space debris in GEO originally from a launch on Sat, 27 Sep 2014 UTC launched from the Tyuratam Missile And Space Complex (TTMTR). Debris objects in space refer to the collection of defunct objects orbiting the Earth. Examples of debris include non-operational satellites, rocket bodies, and fragments generated from explosions, collisions, or faulty payload assembly.

Not visible in the next 10 days
Identifier
40259, 2014-058B
Orbit
GEO
Country
Flag of CISCIS
Related business
Manufacturer
Khrunichev
Mission
Spacecraft
Bus & Motor
BRIZ, Unknown motor
Mass
~1,600 kg wet, 1,600 kg dry
Launch date (UTC)
2014-09-27 (12 years ago)
Launch vehicle
Unknown
Launch site
Tyuratam Missile And Space Complex (TTMTR)
Object type
Payload
Rocket body
Debris
Shape & HBR
Cyl, 2.4 m
Radar Cross Section
15.135 m², Large (>1 m²)

Expand to show TLE details & history
Last TLE update: 1 day ago

TLE from 1 day ago
0 BREEZE-M R/B
1 40259U 14058B   26263.64923679 -.00000179  00000-0  00000-0 0  9991
2 40259  10.7494  58.8432 0636308 200.7819 156.6366  0.91687397 40108
Epoch: 2026-09-20T15:34Z
TLE epoch observation values (Epoch: 2026-09-20T15:34:54.058Z)
Latitude
Longitude
-174.34773°
Altitude
41,006.69 km
Speed
2.814 km/s
True Right ascension
03h 55m 40s
True Declination
0° 00' 00"
Sunlit
Object was in daylight at epoch
Visualization orbit readout
Latitude
Unknown
Longitude
Unknown
Altitude
Unknown
Speed
Unknown
Apparent Right ascension
Unknown
Apparent Declination
Unknown
Sunlit
N/A
Visualization observer readout
Local Sidereal Time
15:13:38
Azimuth
Unknown
Elevation
Unknown
Doppler factor
Unknown
Orbital elements
Apogee altitude
41,227.936 km
Perigee altitude
35,531.951 km
Semi-major axis
44,758.08 km
Eccentricity
0.06363
Inclination
10.7494°
RAAN
58.8432°
Arg. of periapsis
200.7819°
True anomaly
159.32992°
Mean anomaly
156.6366°
Eccentric anomaly
158.0022°
Mean motion
0.22921 °/min
Orbital period
1,570.6 mins
BSTAR
0
Loading maneuver chart data...
Computing Atmospheric mass density...
Loading historical data...
Loading historical data...
Loading historical data...
Loading historical data...
Loading historical data...
Loading historical data...
Loading historical data...
Other satellites on launch #58 in the year 2014 (2014-09-27 UTC)

Documentation

Showing up to 5 results
|